Location: Recife
(8.0585°S, 34.8848°W)
Time: 10:01:52
(UTC-03:00)

Explorer 7 - Pass Details

Date: 21 April 2026
Orbit: 427 x 536 km, 50.2° (Epoch: 14 May)

Event Time Altitude Azimuth Distance (km) Brightness Sun altitude
Rises 09:16:25 0° 194° (SSW) 2,480 9.9 53.7°
Reaches altitude 10° 09:19:03 10° 173° (S) 1,625 9.2 54.2°
Maximum altitude 09:21:36 18° 129° (SE) 1,241 9.0 54.8°
Drops below altitude 10° 09:24:13 10° 85° (E) 1,664 9.9 55.3°
Sets 09:26:57 0° 66° (ENE) 2,566 10.8 55.8°
